[[{"header":{"parameterUnit":"m.s-1","parameterCategory":2,"la1":30.2992,"la2":30.254,"lo1":-89.0895,"lo2":-89.0443,"dy":0.0025,"dx":0.0025,"nx":19,"ny":19,"refTime":"2026-05-06T09:00:00:Z","depth":"0","parameterNumber":2,"parameterNumberName":"U-component_of_CURRENTS"},"data":[0,0,0,0.1458,0.146,0.1591,0.1591,0.1795,0.1797,0,0,0,0,0,0,0,0,0,0,0,0.1406,0.1406,0.1458,0.1461,0.1591,0.1591,0.1795,0.1797,0,0,0,0,0,0,0,0,0,0,0,0.1405,0.1406,0.1407,0.1461,0.159,0.1591,0.1794,0.1688,0,0,0,0,0,0,0,0,0,0,0.1558,0.1493,0.1406,0.1407,0.1462,0.159,0.1591,0.1683,0.1695,0.1745,0,0.1759,0,0.1786,0.1811,0.1812,0,0,0,0.1466,0.1482,0.1528,0.1407,0.1463,0.159,0.1533,0.1689,0.1703,0.1762,0.1762,0.1769,0.1789,0.1812,0.1813,0.2005,0.2005,0,0,0.1459,0.1425,0.1518,0.1536,0.149,0.1529,0.1537,0.1697,0.1703,0.1762,0.1774,0.1793,0.1814,0.1815,0.2004,0.2005,0,0,0,0.1435,0.1419,0.146,0.1528,0.155,0.1533,0.1542,0.1696,0.1712,0.1777,0.1795,0.1815,0.1818,0.2004,0.2004,0.1985,0,0,0,0.1431,0.1406,0.1457,0.1437,0.1547,0.1618,0.1537,0.1701,0.172,0.1794,0.1815,0.182,0.2003,0.2004,0.1984,0.1969,0,0,0,0.1401,0.1403,0.1417,0.1435,0.1491,0.1616,0.1641,0.1705,0.1732,0.1812,0.182,0.2003,0.2004,0.1984,0.1969,0.1972,0,0,0,0.1363,0.1429,0.1416,0.1488,0.149,0.1593,0.164,0.1716,0.1779,0.1816,0.2003,0.2004,0.1983,0.1969,0.1972,0.1924,0.1921,0,0,0.1439,0.1436,0.1481,0.1475,0.1563,0.1575,0.1677,0.1769,0.182,0.1953,0.1958,0.1984,0.1969,0.1972,0.1996,0.1991,0,0,0,0.1502,0.1529,0.1554,0.1593,0.1644,0.1687,0.1761,0.1807,0.1913,0.1864,0.2016,0.2007,0.2009,0.1981,0.1977,0.1829,0.201,0.201,0.201,0.1565,0.1586,0.1646,0.1676,0.1718,0.1775,0.1826,0.1905,0.1944,0.1984,0.2014,0.2035,0.2006,0.2003,0.1851,0.2045,0.2045,0.2045,0.2045,0.1667,0.1701,0.1693,0.1757,0.1768,0.1831,0.1917,0.1941,0.2026,0.2044,0.2047,0.1991,0.1997,0.1837,0.2044,0.2044,0.2044,0.2044,0.2044,0.1701,0.172,0.1735,0.1778,0.181,0.185,0.1899,0.1954,0.2011,0.2021,0.1991,0.199,0.1828,0.2016,0.2016,0.2016,0.2016,0.2016,0.2016,0.1729,0.1747,0.1775,0.1801,0.1807,0.1829,0.1884,0.1916,0.1946,0.197,0.197,0.1819,0.2026,0.2002,0.2015,0.2015,0.2015,0.2015,0.2015,0.182,0.1789,0.1832,0.1837,0.1831,0.1811,0.1854,0.1864,0.1894,0.1897,0.174,0.1953,0.1953,0.1956,0.1932,0.1926,0.1926,0.1926,0.1926,0.1861,0.1856,0.1883,0.1874,0.185,0.1811,0.1767,0.1757,0.17,0.1625,0.1619,0.1587,0.1598,0.1575,0.1587,0.1555,0.1453,0.1452,0.1452,0.1931,0.192,0.194,0.1895,0.1851,0.1787,0.1692,0.1579,0.1459,0.1418,0.1419,0.1439,0.1379,0.1408,0.1367,0.1395,0.1343,0,0]},{"header":{"parameterUnit":"m.s-1","parameterCategory":2,"la1":30.2992,"la2":30.254,"lo1":-89.0895,"lo2":-89.0443,"dy":0.0025,"dx":0.0025,"nx":19,"ny":19,"refTime":"2026-05-06T09:00:00:Z","depth":"0","parameterNumber":3,"parameterNumberName":"V-component_of_CURRENTS"},"data":[0,0,0,0.0078,0.0082,0.033,0.0331,0.0801,0.0806,0,0,0,0,0,0,0,0,0,0,0,-0.0005,-0.0004,0.0077,0.0082,0.0329,0.0331,0.0801,0.0806,0,0,0,0,0,0,0,0,0,0,0,-0.0006,-0.0005,-0.0003,0.0083,0.0329,0.0331,0.08,0.0582,0,0,0,0,0,0,0,0,0,0,0.0325,0.021,-0.0005,-0.0003,0.0084,0.0329,0.0331,0.057,0.0596,0.0724,0,0.0746,0,0.0779,0.0838,0.084,0,0,0,0.0112,0.0188,0.0256,-0.0003,0.0086,0.0328,0.0226,0.0583,0.0612,0.0759,0.0752,0.0769,0.0787,0.0841,0.0844,0.1265,0.1266,0,0,0.0098,0.0053,0.0235,0.0273,0.0135,0.0218,0.0234,0.0599,0.0627,0.0754,0.078,0.0795,0.0844,0.0848,0.1264,0.1265,0,0,0,0.0039,0.0043,0.0099,0.0255,0.0284,0.0225,0.0243,0.0611,0.0629,0.0785,0.08,0.0847,0.0853,0.1263,0.1265,0.1263,0,0,0,0.0032,0.0007,0.0092,0.007,0.0275,0.0428,0.0245,0.0603,0.0645,0.0798,0.0847,0.0858,0.1262,0.1264,0.1261,0.1255,0,0,0,-0.0014,0.0002,0.0024,0.0067,0.016,0.0421,0.0462,0.0612,0.0655,0.084,0.0859,0.1261,0.1264,0.1259,0.1252,0.1264,0,0,0,-0.0058,-0.0003,0.0023,0.0111,0.0157,0.0373,0.0459,0.0638,0.0791,0.085,0.1262,0.1264,0.1258,0.125,0.1262,0.1204,0.1206,0,0,-0.0011,0.0001,0.0058,0.0088,0.0273,0.0341,0.058,0.079,0.0875,0.1156,0.1166,0.1261,0.1252,0.1264,0.1342,0.1339,0,0,0,0.0061,0.0103,0.0165,0.0276,0.0419,0.0594,0.0777,0.0869,0.1086,0.0971,0.1311,0.1306,0.1312,0.1276,0.1275,0.1282,0.1275,0.1275,0.1275,0.0075,0.0164,0.0298,0.0441,0.0578,0.0801,0.0941,0.1109,0.1182,0.1254,0.1341,0.14,0.1364,0.1362,0.1372,0.1387,0.1387,0.1387,0.1387,0.0182,0.0283,0.0398,0.055,0.0726,0.092,0.1166,0.1218,0.1399,0.1411,0.1416,0.1322,0.1361,0.1372,0.1388,0.1388,0.1387,0.1387,0.1387,0.0222,0.0291,0.0364,0.0574,0.0772,0.0975,0.1152,0.1297,0.1392,0.1431,0.1381,0.1379,0.1354,0.1421,0.1421,0.1421,0.1421,0.1421,0.1421,0.0241,0.0329,0.0427,0.0611,0.0726,0.09,0.1138,0.123,0.1332,0.1385,0.1385,0.139,0.141,0.1368,0.1422,0.1422,0.1422,0.1421,0.1421,0.0351,0.0333,0.0473,0.0569,0.0793,0.0907,0.1081,0.1205,0.1284,0.1304,0.1354,0.1369,0.136,0.136,0.132,0.1357,0.1357,0.1357,0.1357,0.0385,0.04,0.0535,0.0656,0.0806,0.0931,0.1034,0.1155,0.1268,0.1309,0.1335,0.1316,0.1318,0.1306,0.1308,0.1267,0.1291,0.1291,0.1291,0.0461,0.0476,0.0567,0.0655,0.0819,0.0918,0.0997,0.1126,0.1258,0.1292,0.1361,0.1363,0.1341,0.1344,0.1329,0.1331,0.1265,0,0]}],[{"header":{"parameterUnit":"m.s-1","parameterCategory":2,"la1":30.2992,"la2":30.254,"lo1":-89.0895,"lo2":-89.0443,"dy":0.0025,"dx":0.0025,"nx":19,"ny":19,"refTime":"2026-05-06T09:00:00:Z","depth":"2","parameterNumber":2,"parameterNumberName":"U-component_of_CURRENTS"},"data":[0,0,0,0.1458,0.146,0.1598,0.1598,0.1804,0.1806,0,0,0,0,0,0,0,0,0,0,0,0.1402,0.1403,0.1457,0.1461,0.1598,0.1598,0.1803,0.1806,0,0,0,0,0,0,0,0,0,0,0,0.1402,0.1403,0.1403,0.1461,0.1597,0.1598,0.1803,0.1693,0,0,0,0,0,0,0,0,0,0,0.1557,0.149,0.1402,0.1404,0.1462,0.1597,0.1598,0.1688,0.17,0.1749,0,0.1763,0,0.1793,0.182,0.182,0,0,0,0.1466,0.1479,0.1527,0.1404,0.1463,0.1597,0.1537,0.1694,0.1708,0.1765,0.1766,0.1774,0.1796,0.1821,0.1822,0.2008,0.2009,0,0,0.1458,0.1423,0.1517,0.1535,0.1492,0.1533,0.1541,0.1703,0.1709,0.1767,0.1779,0.1799,0.1822,0.1824,0.2008,0.2008,0,0,0,0.1433,0.1417,0.146,0.1527,0.1552,0.1537,0.1547,0.1701,0.1718,0.1781,0.1802,0.1823,0.1826,0.2007,0.2008,0.1993,0,0,0,0.1429,0.1403,0.1456,0.1436,0.1548,0.1622,0.1541,0.1707,0.1726,0.1801,0.1824,0.1828,0.2007,0.2008,0.1992,0.1978,0,0,0,0.1397,0.1399,0.1415,0.1434,0.1493,0.162,0.1646,0.1711,0.1739,0.182,0.1829,0.2006,0.2008,0.1991,0.1978,0.1979,0,0,0,0.1358,0.1424,0.1413,0.1486,0.1492,0.1599,0.1646,0.1725,0.1789,0.1825,0.2007,0.2008,0.1991,0.1978,0.1979,0.189,0.1884,0,0,0.1434,0.1432,0.1477,0.1472,0.1565,0.1581,0.1685,0.1777,0.1826,0.1956,0.196,0.1992,0.1978,0.1979,0.1955,0.1947,0,0,0,0.1497,0.1525,0.1551,0.1593,0.1647,0.1694,0.177,0.1815,0.1919,0.1871,0.202,0.2012,0.2013,0.1959,0.1954,0.2013,0.2013,0.2013,0.2013,0.1564,0.1584,0.1646,0.1677,0.1721,0.1783,0.1835,0.1912,0.195,0.1988,0.202,0.2038,0.1983,0.1977,0.2048,0.2048,0.2048,0.2048,0.2048,0.1668,0.1702,0.1694,0.1761,0.1773,0.1839,0.1925,0.1949,0.2031,0.2047,0.2049,0.1972,0.1969,0.2047,0.2047,0.2047,0.2047,0.2047,0.2047,0.1704,0.1723,0.1739,0.1783,0.1818,0.1859,0.1909,0.1965,0.2019,0.2029,0.1968,0.1967,0.2009,0.2022,0.2022,0.2022,0.2022,0.2022,0.2022,0.1734,0.1753,0.1781,0.181,0.1816,0.1841,0.1896,0.1927,0.1937,0.1946,0.1946,0.203,0.2031,0.2009,0.2022,0.2022,0.2022,0.2022,0.2022,0.1826,0.1796,0.184,0.1846,0.1842,0.1819,0.1864,0.1852,0.1875,0.1861,0.1906,0.1909,0.1903,0.1908,0.1884,0.1864,0.1864,0.1864,0.1864,0.1867,0.1863,0.1892,0.1885,0.1862,0.1819,0.1745,0.1629,0.1638,0.1559,0.1571,0.1538,0.1552,0.1525,0.1539,0.1507,0.1388,0.1387,0.1386,0.1937,0.1926,0.1948,0.1906,0.1863,0.1791,0.1643,0.133,0.1143,0.1362,0.1434,0.1842,0.183,0.1838,0.1828,0.1836,0.1799,0,0]},{"header":{"parameterUnit":"m.s-1","parameterCategory":2,"la1":30.2992,"la2":30.254,"lo1":-89.0895,"lo2":-89.0443,"dy":0.0025,"dx":0.0025,"nx":19,"ny":19,"refTime":"2026-05-06T09:00:00:Z","depth":"2","parameterNumber":3,"parameterNumberName":"V-component_of_CURRENTS"},"data":[0,0,0,-0.0046,-0.0041,0.0216,0.0218,0.0674,0.0678,0,0,0,0,0,0,0,0,0,0,0,-0.0133,-0.0132,-0.0046,-0.0041,0.0216,0.0218,0.0673,0.0678,0,0,0,0,0,0,0,0,0,0,0,-0.0134,-0.0132,-0.0131,-0.004,0.0216,0.0218,0.0672,0.0453,0,0,0,0,0,0,0,0,0,0,0.019,0.008,-0.0133,-0.0131,-0.0039,0.0216,0.0218,0.0442,0.0467,0.0584,0,0.0607,0,0.0645,0.0708,0.071,0,0,0,-0.0011,0.0059,0.0124,-0.0131,-0.0037,0.0215,0.0109,0.0455,0.0484,0.0618,0.0614,0.063,0.0653,0.0711,0.0714,0.1106,0.1107,0,0,-0.0026,-0.0069,0.0104,0.0141,0.0014,0.01,0.0116,0.0471,0.05,0.0615,0.0641,0.066,0.0714,0.0718,0.1105,0.1107,0,0,0,-0.0086,-0.008,-0.0024,0.0123,0.0156,0.0107,0.0125,0.0485,0.0501,0.0645,0.0665,0.0717,0.0723,0.1105,0.1106,0.1121,0,0,0,-0.0093,-0.0117,-0.0032,-0.0052,0.0147,0.0306,0.013,0.0476,0.0517,0.0663,0.0717,0.0727,0.1104,0.1105,0.1119,0.1115,0,0,0,-0.0142,-0.0121,-0.0099,-0.0056,0.0042,0.03,0.0338,0.0486,0.053,0.071,0.0728,0.1103,0.1105,0.1116,0.1112,0.1135,0,0,0,-0.0184,-0.0133,-0.01,-0.0019,0.0039,0.0253,0.0336,0.0518,0.0668,0.0719,0.1104,0.1106,0.1116,0.1111,0.1133,0.1047,0.1048,0,0,-0.0142,-0.0129,-0.0078,-0.0043,0.014,0.022,0.0453,0.0662,0.0741,0.0999,0.1009,0.112,0.1112,0.1135,0.1166,0.1164,0,0,0,-0.0078,-0.0036,0.0025,0.0136,0.0281,0.0461,0.0646,0.0733,0.0942,0.0833,0.1158,0.1153,0.1166,0.1112,0.1111,0.1116,0.1115,0.1115,0.1115,-0.0058,0.0024,0.0153,0.0293,0.0432,0.066,0.08,0.0961,0.1033,0.1101,0.1194,0.126,0.1204,0.1202,0.1232,0.1232,0.1233,0.1233,0.1233,0.0047,0.0142,0.0255,0.0404,0.0581,0.0777,0.1015,0.107,0.125,0.1256,0.1268,0.1166,0.1201,0.1235,0.1234,0.1234,0.1234,0.1234,0.1234,0.0092,0.0155,0.0229,0.0438,0.0637,0.084,0.1018,0.1163,0.1256,0.1303,0.124,0.1238,0.1242,0.1306,0.1306,0.1306,0.1306,0.1306,0.1306,0.0116,0.0201,0.0303,0.0486,0.0602,0.0781,0.102,0.1112,0.1211,0.1253,0.1253,0.1284,0.1282,0.1248,0.1308,0.1307,0.1307,0.1307,0.1307,0.0222,0.0212,0.0354,0.0454,0.068,0.0789,0.0969,0.1084,0.1167,0.118,0.1231,0.1232,0.1215,0.1215,0.118,0.122,0.122,0.122,0.122,0.0257,0.0275,0.0419,0.0546,0.0698,0.0813,0.0894,0.0963,0.1059,0.1079,0.1085,0.1043,0.105,0.1022,0.1026,0.0987,0.0976,0.0976,0.0975,0.0331,0.0351,0.0448,0.0546,0.0711,0.0796,0.0826,0.0816,0.0863,0.0967,0.1055,0.1201,0.1154,0.1158,0.1126,0.1129,0.1071,0,0]}],[{"header":{"parameterUnit":"m.s-1","parameterCategory":2,"la1":30.2992,"la2":30.254,"lo1":-89.0895,"lo2":-89.0443,"dy":0.0025,"dx":0.0025,"nx":19,"ny":19,"refTime":"2026-05-06T09:00:00:Z","depth":"4","parameterNumber":2,"parameterNumberName":"U-component_of_CURRENTS"},"data":[0,0,0,-0.0551,-0.0548,-0.0374,-0.0373,-0.0035,-0.0032,0,0,0,0,0,0,0,0,0,0,0,-0.06,-0.06,-0.0551,-0.0548,-0.0374,-0.0373,-0.0035,-0.0032,0,0,0,0,0,0,0,0,0,0,0,-0.0601,-0.06,-0.0599,-0.0547,-0.0374,-0.0373,-0.0036,-0.0188,0,0,0,0,0,0,0,0,0,0,-0.0368,-0.0425,-0.06,-0.0599,-0.0547,-0.0375,-0.0373,-0.0196,-0.0178,-0.0091,0,-0.0079,0,-0.0062,-0.001,-0.0008,0,0,0,-0.0514,-0.044,-0.0418,-0.0599,-0.0545,-0.0375,-0.0443,-0.0187,-0.0167,-0.0067,-0.0074,-0.0062,-0.0057,-0.0007,-0.0006,0.027,0.0271,0,0,-0.0524,-0.0534,-0.0433,-0.0406,-0.0515,-0.0449,-0.0438,-0.0175,-0.0143,-0.0073,-0.0055,-0.0051,-0.0005,-0.0003,0.0269,0.027,0,0,0,-0.0574,-0.0541,-0.0526,-0.0419,-0.0405,-0.0445,-0.0432,-0.0154,-0.0157,-0.0051,-0.0047,-0.0003,0.0001,0.0269,0.027,0.0313,0,0,0,-0.0578,-0.0573,-0.0531,-0.053,-0.0412,-0.029,-0.0416,-0.0175,-0.0146,-0.0049,-0.0003,0.0004,0.0268,0.0269,0.031,0.0325,0,0,0,-0.0606,-0.0575,-0.0567,-0.0532,-0.0476,-0.0295,-0.028,-0.0168,-0.0143,-0.0008,0.0005,0.0268,0.0269,0.0308,0.0322,0.0218,0,0,0,-0.0605,-0.0565,-0.0566,-0.0514,-0.0479,-0.0357,-0.0282,-0.014,-0.0024,-0.0002,0.0268,0.027,0.0308,0.032,0.0218,0.0164,0,0,0,-0.0557,-0.0559,-0.0532,-0.053,-0.0441,-0.0377,-0.0208,-0.0024,0.0023,0.0195,0.0202,0.0311,0.0322,0.0218,0.024,0,0,0,0,-0.0518,-0.05,-0.0475,-0.0422,-0.0348,-0.0198,-0.0054,0.0013,0.0179,0.0088,0.0325,0.033,0.0262,0.0233,0.0276,0.0276,0.0276,0.0275,0.0275,-0.0452,-0.0436,-0.0355,-0.0298,-0.0203,-0.0043,0.0072,0.0198,0.024,0.0305,0.0376,0.0346,0.0324,0.039,0.039,0.039,0.039,0.0391,0.0391,-0.0381,-0.0331,-0.0256,-0.0155,-0.0017,0.015,0.0285,0.0325,0.0395,0.0435,0.0365,0.03,0.0395,0.0394,0.0394,0.0393,0.0393,0.0393,0.0392,-0.0347,-0.031,-0.0227,-0.0064,0.0125,0.0274,0.0324,0.0411,0.0427,0.0419,0.0278,0.0335,0.0311,0.0338,0.0337,0.0337,0.0337,0.0336,0.0336,-0.0336,-0.0262,-0.0163,0.0017,0.0121,0.024,0.0327,0.0279,0.0288,0.031,0.0387,0.0326,0.0327,0.0306,0.0331,0.0332,0.0332,0.0333,0.0333,-0.033,-0.0279,-0.0175,-0.0079,0.0076,0.0125,0.0183,0.0139,0.0058,0.0011,0.0214,0.0222,0.0172,0.0176,0.0147,0.0126,0.0125,0.0124,0,-0.0334,-0.0301,-0.0201,-0.0139,-0.0075,0.002,-0.0054,-0.0086,-0.0037,0.0039,-0.0037,0.0193,0.0201,0.0142,0.0145,0.0109,0,0,0,-0.0343,-0.031,-0.0264,-0.0188,-0.014,-0.0116,-0.0071,-0.007,0.0053,-0.0084,0.0106,0.0111,0.0066,0.0315,0.0253,0.0255,0.0215,0,0]},{"header":{"parameterUnit":"m.s-1","parameterCategory":2,"la1":30.2992,"la2":30.254,"lo1":-89.0895,"lo2":-89.0443,"dy":0.0025,"dx":0.0025,"nx":19,"ny":19,"refTime":"2026-05-06T09:00:00:Z","depth":"4","parameterNumber":3,"parameterNumberName":"V-component_of_CURRENTS"},"data":[0,0,0,0.0188,0.0188,0.0183,0.0183,0.0066,0.0065,0,0,0,0,0,0,0,0,0,0,0,0.0182,0.0182,0.0188,0.0188,0.0183,0.0183,0.0067,0.0065,0,0,0,0,0,0,0,0,0,0,0,0.0182,0.0182,0.0182,0.0188,0.0183,0.0183,0.0067,0.0097,0,0,0,0,0,0,0,0,0,0,0.0115,0.012,0.0182,0.0182,0.0188,0.0183,0.0183,0.0099,0.0095,0.004,0,0.004,0,0.0052,0.0056,0.0055,0,0,0,0.0182,0.0124,0.0132,0.0182,0.0188,0.0183,0.0183,0.0098,0.0092,0.0033,0.0039,0.0035,0.005,0.0055,0.0054,-0.0012,-0.0012,0,0,0.0182,0.0168,0.0136,0.0129,0.0185,0.0183,0.0183,0.0096,0.0081,0.0038,0.0033,0.0049,0.0054,0.0053,-0.0013,-0.0012,0,0,0,0.0187,0.0168,0.018,0.0132,0.0142,0.0184,0.0183,0.0085,0.0091,0.0032,0.0047,0.0053,0.0051,-0.0013,-0.0012,0.0057,0,0,0,0.0187,0.0172,0.018,0.0171,0.0144,0.0126,0.0174,0.0097,0.0089,0.0048,0.0053,0.005,-0.0013,-0.0013,0.0054,0.0114,0,0,0,0.0183,0.0172,0.0174,0.017,0.0173,0.0129,0.0131,0.0097,0.0097,0.0055,0.0049,-0.0014,-0.0013,0.0052,0.0108,0.016,0,0,0,0.0166,0.0184,0.0173,0.0195,0.0174,0.0208,0.0132,0.0132,0.0106,0.0052,-0.0013,-0.0013,0.0051,0.0105,0.0156,0.0005,0,0,0,0.019,0.0186,0.0204,0.0196,0.0242,0.0208,0.0229,0.0154,0.0095,0.0005,0.0004,0.0055,0.0108,0.0159,0.0056,0,0,0,0,0.0214,0.0223,0.0237,0.0253,0.0271,0.0273,0.0221,0.0192,0.0127,0.0084,0.0053,0.0085,0.0115,0.0015,-0.0008,-0.0008,-0.0009,-0.0009,-0.0009,0.0236,0.0252,0.0291,0.0311,0.0323,0.0306,0.0307,0.0249,0.0172,0.0162,0.0139,0.0225,0.0121,0.0119,0.0119,0.0119,0.012,0.012,0.012,0.0283,0.0308,0.0324,0.037,0.0377,0.0377,0.0346,0.0305,0.0297,0.0218,0.0242,0.0091,0.0127,0.0125,0.0124,0.0124,0.0123,0.0123,0.0122,0.0301,0.0316,0.0358,0.0415,0.0434,0.0411,0.0391,0.0392,0.0363,0.0394,0.0262,0.0286,0.0284,0.0383,0.0384,0.0384,0.0385,0.0385,0.0385,0.0303,0.0347,0.0404,0.0455,0.0478,0.0454,0.0435,0.037,0.0357,0.0352,0.0409,0.0315,0.0306,0.03,0.0393,0.0392,0.0391,0.039,0.0389,0.0298,0.0352,0.0427,0.0475,0.0485,0.0433,0.0445,0.0303,0.0295,0.0231,0.0326,0.0327,0.0295,0.0288,0.0279,0.037,0.0369,0.0367,0,0.0296,0.0327,0.0445,0.0505,0.0444,0.0417,0.0279,0.0171,0.0188,0.0282,0.0236,0.0351,0.0349,0.0311,0.0302,0.0291,0,0,0,0.0286,0.0344,0.0413,0.0501,0.0426,0.0272,0.0211,0.0171,0.0314,0.0066,0.0328,0.0338,0.0082,0.0416,0.0371,0.0361,0.0349,0,0]}]]